SCP
0 0 0 0 0 0 0 0 0 0 0 0 0 0 0 0 0 0 0 0 0 0 0 0 0 0 0 0 0 0 0 0 0 0 0 0 0 0 0 0 0 0 0
0 0 0 0 0 0 0 0 0 0 0 0 0 0 0 0 0 0 0 0 0 0 0 0 0 0 0 0 0 0 0 0 0 0 0 0 0 0 0 0 0 0 0
1 0 0 0 0 0 0 0 0 0 0 0 0 0 0 0 0 0 0 0 0 0 0 0 0 0 0 0 0 0 0 0 0 0 0 0 0 0 0 0 0 0 0
0 0 0 0 0 0 0 0 0 0 0 0 0 0 0 0 0 0 0 0 0 0 0 0 0 0 0 0 0 0 0 0 0 0 0 0 0 0 0 0 0 0 0
0 0 0 0 0 0 0 0 0 0 0 0 0 0 0 0 0 0 0 0 0 0 0 0 0 0 0 0 0 0 0 0 0 0 0 0 0 0 0 0 0 0 0
0 0 0 0 0 0 0 0 0 0 0 0 0 0 0 0 0 0 0 0 0 0 0 0 0 0 0 0 0 0 0 0 0 0 0 0 0 0 0 0 0 0 0
0 0 0 0 0 0 0 0 0 0 0 0 0 0 0 0 0 0 0 0 0 0 0 0 0 0 0 0 0 0 0 0 0 0 0 0 0 0 0 0 0 0 0
0 0 0 0 0 0 0 0 0 0 0 0 0 0 0 0 0 0 0 0 0 0 0 0 0 0 0 0 0 0 0 0 0 0 0 0 0 0 0 0 0 0 0
0 0 0 0 0 0 0 0 0 0 0 0 0 0 0 0 0 0 0 0 0 0 0 0 0 0 0 0 0 0 0 0 0 0 0 0 0 0 0 0 0 0 0
0 0 0 0 0 0 0 0 0 0 0 0 0 0 0 0 0 0 0 0 0 0 0 0 0 0 0 0 0 0 0 0 0 0 0 0 0 0 0 0 0 0 0
0 0 0 0 0 0 0 0 0 0 0 0 0 0 0 0 0 0 0 0 0 0 0 0 0 0 0 0 0 0 0 0 0 0 0 0 0 0 0 0 0 0 0
0 0 0 0 0 0 0 0 0 0 0 0 0 0 0 0 0 0 0 0 0 0 0 0 0 0 0 0 0 0 0 0 0 0 0 0 0 0 0 0 0 0 0
0 0 0 0 0 0 0 0 0 0 0 0 0 0 0 0 0 0 0 0 0 0 0 0 0 0 0 0 0 0 0 0 0 0 0 0 0 0 0 0 0 0 0
0 0 0 0 0 0 0 0 0 0 0 0 0 0 0 0 0 0 0 0 0 0 0 0 0 0 0 0 0 0 0 0 0 0 0 0 0 0 0 0 0 0 0
0 0 0 0 0 0 0 0 0 0 0 0 0 0 0 0 0 0 0 0 0 0 0 0 0 0 0 0 0 0 0 0 0 0 0 0 0 0 0 0 0 0 0
0 0 0 0 0 0 0 0 0 0 0 0 0 0 0 0 0 0 0 0 0 0 0 0 0 0 0 0 0 0 0 0 0 0 0 0 0 0 0 0 0 0 0
0 0 0 0 0 0 0 0 0 0 0 0 0 0 0 0 0 0 0 0 0 0 0 0 0 0 0 0 0 0 0 0 0 0 0 0 0 0 0 0 0 0 0
0 0 0 0 0 0 0 0 0 0 0 0 0 0 0 0 0 0 0 0 0 0 0 0 0 0 0 0 0 0 0 0 0 0 0 0 0 0 0 0 0 0 0
0 0 0 0 0 0 0 0 0 0 0 0 0 0 0 0 0 0 0 0 0 0 0 0 0 0 0 0 0 0 0 0 0 0 0 0 0 0 0 0 0 0 0
0 0 0 0 0 0 0 0 0 0 0 0 0 0 0 0 0 0 0 0 0 0 0 0 0 0 0 0 0 0 0 0 0 0 0 0 0 0 0 0 0 0 0
0 0 0 0 0 0 0 0 0 0 0 0 0 0 0 0 0 0 0 0 0 0 0 0 0 0 0 0 0 0 0 0 0 0 0 0 0 0 0 0 0 0 0
0 0 0 0 0 0 0 0 0 0 0 0 0 0 0 0 0 0 0 0 0 0 0 0 0 0 0 0 0 0 0 0 0 0 0 0 0 0 0 0 0 0 0
0 0 0 0 0 0 0 0 0 0 0 0 0 0 0 0 0 0 0 0 0 0 0 0 0 0 0 0 0 0 0 0 0 0 0 0 0 0 0 0 0 0 0
0 0 0 0 0 0 0 0 0 0 0 0 0 0 0 0 0 0 0 0 0 0 0 0 0 0 0 0 0 0 0 0 0 0 0 0 0 0 0 0 0 0 0
0 0 0 0 0 0 0 0 0 0 0 0 0 0 0 0 0 0 0 0 0 0 0 0 0 0 0 0 0 0 0 0 0 0 0 0 0 0 0 0 0 0 0
0 0 0 0 0 0 0 0 0 0 0 0 0 0 0 0 0 0 0 0 0 0 0 0 0 0 0 0 0 0 0 0 0 0 0 0 0 0 0 0 0 0 0
Wind_Speed
3 3 2 1 2 2 2 1 1 1 1 1 0 2 2 3 5 6 6 11 11 10 9 9 9 8 8 7 7 6 6 5 5 6 6 6 7 7 7 6 6 5 5
3 3 2 1 1 2 1 1 1 1 0 0 0 1 2 2 4 6 6 7 10 10 9 9 8 8 8 8 7 7 6 6 5 5 6 6 6 6 6 6 6 6 5
4 3 2 1 1 2 2 1 1 1 1 1 1 1 1 2 3 5 6 5 6 8 10 9 9 8 8 8 8 7 6 5 5 6 6 6 6 6 6 6 6 6 6
4 2 2 1 1 1 1 1 0 1 1 1 1 0 1 1 2 3 4 4 4 5 7 10 9 8 9 9 9 8 8 7 6 6 6 6 6 6 7 7 6 6 6
3 2 2 2 1 1 0 1 2 1 1 1 1 1 1 1 1 2 3 4 4 4 4 7 8 8 8 9 9 9 9 8 8 7 7 7 7 7 7 7 7 6 6
3 2 3 2 1 1 1 2 2 1 1 0 1 1 1 1 2 2 2 3 3 4 5 5 5 5 8 8 8 8 8 9 9 9 8 8 9 8 8 8 8 7 7
3 1 3 2 1 1 2 2 2 1 1 1 1 0 1 1 2 2 2 2 3 3 4 4 4 3 4 8 7 8 8 8 8 8 9 9 9 9 9 9 9 8 8
4 4 3 3 2 2 2 1 1 0 1 2 1 0 1 1 1 2 3 3 3 2 3 4 3 3 3 3 5 7 7 7 8 8 9 10 9 9 9 10 9 9 9
3 2 3 2 2 2 2 1 0 1 0 1 1 0 0 1 1 1 2 3 3 2 2 3 3 3 3 3 3 5 6 5 6 8 8 9 9 8 8 9 9 9 9
4 4 3 3 2 2 2 2 2 0 0 1 1 1 1 1 1 2 1 2 3 2 2 2 3 3 3 3 3 4 5 4 4 6 7 7 7 8 9 9 10 10 9
4 4 4 3 2 2 2 2 2 1 1 0 0 1 1 1 2 2 2 3 2 2 3 2 2 2 3 3 3 4 5 4 3 3 4 5 6 7 8 9 10 10 10
4 5 5 3 2 2 3 2 1 1 1 1 1 1 0 1 1 1 2 3 3 2 3 2 2 2 2 3 3 6 6 5 4 3 3 3 4 5 6 7 9 10 10
4 5 5 4 3 3 3 2 1 1 1 1 1 1 1 1 1 1 1 1 2 2 3 3 3 2 2 3 4 7 6 6 4 4 3 3 3 4 5 6 8 9 9
5 6 5 5 4 4 3 2 2 2 1 0 0 1 1 1 1 1 1 1 0 1 2 3 2 3 2 3 4 6 5 7 6 5 5 4 4 4 5 5 6 7 7
6 7 6 5 4 3 3 3 1 2 2 1 1 1 1 1 1 1 1 1 0 0 0 2 2 3 3 3 5 3 3 8 8 8 7 7 6 6 6 6 6 6 7
5 7 6 5 5 4 3 3 3 2 3 2 1 1 1 2 1 1 1 1 1 0 0 1 1 2 2 2 4 1 2 8 10 10 10 9 9 8 8 8 8 8 8
7 6 6 6 5 5 4 3 3 4 3 2 1 2 1 2 2 2 1 1 1 1 1 0 1 2 2 1 1 2 3 4 6 12 13 11 11 10 10 10 9 9 9
6 6 6 5 6 5 4 4 4 4 4 3 2 2 2 1 1 1 2 2 1 1 0 0 0 1 2 3 3 3 4 5 3 8 13 14 13 13 12 11 11 11 11
6 6 6 6 5 5 5 4 3 3 3 3 3 3 2 1 1 0 1 1 1 1 0 1 1 1 2 2 2 4 5 3 5 5 10 12 13 13 13 13 13 13 12
6 6 6 5 5 5 5 5 4 3 3 2 2 2 2 2 1 1 1 1 1 1 1 2 2 2 2 2 2 2 3 2 4 4 3 6 11 14 15 15 15 14 14
8 6 6 5 5 5 6 6 4 5 4 3 3 3 2 2 2 1 1 1 2 1 2 2 2 2 0 0 1 1 3 3 3 3 2 3 4 5 8 12 15 16 15
6 7 6 6 6 6 7 8 4 3 3 4 4 3 3 4 5 4 3 2 1 2 2 2 3 2 2 2 1 2 3 3 3 2 2 4 4 4 5 5 11 15 16
6 6 6 6 5 5 7 8 6 2 3 3 4 3 5 5 6 5 6 7 6 7 6 3 4 4 4 3 2 3 3 4 4 4 4 5 4 5 5 5 8 12 14
6 6 6 6 6 7 10 10 8 4 4 4 4 4 4 3 5 3 3 5 6 6 8 7 5 6 5 3 3 4 5 5 6 6 5 5 5 5 5 3 7 10 13
7 6 6 6 6 6 11 11 9 4 5 6 6 6 6 5 5 5 4 4 5 4 7 8 9 8 7 7 4 3 4 5 6 5 4 4 4 4 4 4 5 10 12
7 7 7 7 7 7 11 13 11 5 5 5 5 6 8 7 7 8 5 5 6 5 5 4 5 7 8 9 10 7 6 6 6 5 4 3 3 3 4 4 3 3 5
Wind_Direction
121 125 127 150 167 141 158 184 113 65 56 103 11 96 84 87 113 118 132 145 146 150 155 158 160 157 156 154 155 155 155 154 155 152 154 154 152 150 151 152 151 151 147
114 116 122 100 97 112 121 148 142 126 186 67 117 111 103 97 112 124 136 150 157 160 162 166 167 166 165 164 165 165 165 162 161 166 169 167 165 162 162 165 168 170 165
122 119 126 152 113 123 136 182 167 156 199 177 161 139 130 118 125 125 142 152 164 170 172 174 175 175 176 175 175 173 175 176 173 174 179 178 178 175 172 176 180 179 179
129 139 151 134 126 158 165 158 120 125 111 98 101 8 98 120 133 143 156 155 157 162 179 182 180 182 185 186 187 187 188 190 190 187 186 182 183 186 186 189 190 187 187
148 160 125 111 181 164 140 148 112 99 105 95 152 157 127 131 143 168 147 145 152 156 163 176 180 185 191 194 197 199 200 199 199 198 192 190 192 192 194 198 198 196 194
158 162 136 140 214 150 108 75 99 103 98 178 261 116 156 163 165 154 158 139 153 166 162 161 170 187 190 194 196 201 207 207 204 205 203 201 204 200 199 201 205 206 205
152 155 125 144 179 105 112 117 108 161 174 158 98 120 155 159 153 156 137 137 154 157 149 155 165 166 176 190 194 199 205 209 210 209 206 206 208 206 204 206 210 212 212
159 164 139 156 130 117 121 119 121 159 199 154 160 167 150 136 206 152 149 158 148 144 151 159 151 160 169 165 187 198 206 214 220 217 211 206 207 210 212 213 213 215 218
147 102 123 113 129 147 137 144 213 218 186 170 159 143 138 141 147 144 148 128 133 132 140 139 155 160 173 163 171 194 204 214 228 225 219 212 210 212 217 221 220 219 222
150 136 127 122 119 110 125 185 139 306 202 217 166 172 150 125 147 138 149 142 147 147 143 153 151 159 162 153 156 168 183 198 223 227 226 221 216 214 221 227 228 228 226
158 150 138 134 124 105 99 75 85 23 327 318 239 180 156 183 216 160 161 164 163 161 159 163 158 161 161 155 158 160 165 178 203 223 228 228 230 226 227 233 237 238 238
166 159 148 144 137 122 111 95 81 119 61 26 3 1 156 205 213 157 152 163 159 164 156 148 160 159 159 146 149 154 161 172 190 206 225 238 240 239 240 243 248 250 251
166 162 149 147 139 126 137 134 126 69 73 55 16 340 344 346 15 58 105 146 151 163 159 169 170 162 152 132 143 165 172 176 187 199 213 230 240 245 247 248 254 257 260
155 149 147 156 157 166 158 150 151 164 140 101 175 20 329 351 346 38 72 96 162 191 168 163 156 152 131 137 158 182 178 187 195 205 215 226 236 244 250 250 255 259 263
150 153 158 163 162 153 146 152 148 137 134 183 200 183 294 276 307 17 29 51 71 327 142 153 156 150 146 139 157 195 178 189 199 208 214 220 227 234 243 248 250 255 260
138 152 161 162 161 161 173 172 165 156 152 165 162 94 350 356 6 7 10 350 354 345 66 145 147 126 114 133 162 214 200 190 206 213 216 219 224 231 236 240 244 248 253
149 162 165 165 164 167 173 175 175 166 164 177 156 137 119 22 5 338 351 341 14 33 64 100 97 110 131 127 176 240 233 212 212 217 217 218 221 227 233 237 240 244 247
163 167 168 170 176 170 172 186 200 171 172 175 168 158 187 181 143 337 344 349 16 51 103 239 192 195 198 195 206 233 255 249 227 216 213 216 221 225 231 235 238 241 243
173 171 174 179 181 171 178 187 193 179 178 174 174 184 194 172 197 332 316 326 323 341 66 253 258 230 225 212 201 246 265 270 273 238 214 217 224 228 232 235 237 239 241
173 172 175 180 179 182 184 185 187 188 186 183 189 196 190 186 188 212 258 263 289 308 290 264 252 236 220 208 199 245 272 256 267 277 245 219 222 228 233 236 238 239 240
180 174 174 182 185 191 194 185 185 190 186 196 201 206 189 148 110 78 318 2 346 325 299 286 278 283 252 297 265 279 287 282 265 266 269 263 230 227 231 237 239 239 237
182 176 181 189 196 204 175 167 180 200 184 197 207 206 186 179 176 189 211 231 250 274 299 309 299 305 303 305 329 302 302 308 302 304 312 289 276 255 239 227 224 225 229
184 182 187 195 190 175 164 161 169 204 222 221 217 218 239 215 189 199 210 223 234 237 233 248 274 283 289 299 310 305 299 294 283 283 285 278 271 270 267 271 236 221 222
185 188 193 199 191 185 176 172 174 207 235 237 232 227 238 230 232 221 222 223 224 226 224 225 239 256 265 278 276 273 274 276 267 262 246 258 263 262 274 267 239 228 221
187 192 196 201 201 186 182 181 179 206 226 231 232 231 226 224 219 214 232 250 256 258 247 232 222 235 248 260 262 282 279 278 280 277 259 251 265 268 270 267 252 238 232
190 195 197 198 199 190 186 189 189 212 227 228 226 228 229 227 212 208 222 241 251 258 270 264 246 248 247 249 240 230 244 258 271 278 274 275 284 292 292 280 281 270 248